Location: Unspecified
(0.0000°N, 0.0000°E)
Time: 06:39:03
(UTC+02:00)

Milstar 3 - Visible Passes

Search period start: 21 August 2017 00:00
Search period end: 31 August 2017 00:00
Orbit: 1097 x 5148 km, 28.2° (Epoch: 12 August)

Date Brightness Start Highest point End Pass type
(mag) Time Alt. Az. Time Alt. Az. Time Alt. Az.
21 Aug 5.4 07:06:48 10° S 07:11:28 13° SSE 07:17:21 10° SE visible
21 Aug 4.8 21:32:04 10° NW 21:48:55 35° NNE 21:54:18 25° NE visible
22 Aug 5.5 00:24:17 10° WNW 00:27:52 21° WNW 00:27:52 21° WNW visible
22 Aug 5.4 20:24:31 10° NW 20:44:21 31° N 20:55:41 10° ENE visible
22 Aug 4.6 23:19:39 10° NW 23:30:00 45° NNW 23:30:00 45° NNW visible
23 Aug 4.2 22:14:13 10° NW 22:31:00 49° NNE 22:32:09 48° NE visible
24 Aug 5.4 06:46:31 10° S 06:50:12 12° SSE 06:54:38 10° SE visible
24 Aug 4.8 21:07:44 10° NW 21:27:21 41° NNE 21:34:19 24° ENE visible
25 Aug 5.2 00:01:31 10° WNW 00:07:53 30° WNW 00:07:53 30° WNW visible
25 Aug 5.5 20:00:01 10° NW 20:22:35 36° NNE 20:35:08 10° ENE visible
25 Aug 4.2 22:56:11 10° NW 23:10:04 62° NNW 23:10:04 62° NNW visible
26 Aug 5.3 07:25:09 10° SSW 07:32:09 20° SSE 07:42:25 10° ESE visible
26 Aug 4.2 21:50:09 10° NW 22:09:25 58° NNE 22:12:16 49° ENE visible
27 Aug 5.9 00:44:03 10° WNW 00:45:51 14° W 00:45:51 14° W visible
27 Aug 5.3 06:26:06 10° S 06:28:57 11° SSE 06:32:12 10° SE visible
27 Aug 4.9 20:43:14 10° NW 21:05:35 47° NNE 21:14:29 21° E visible
27 Aug 4.8 23:38:30 10° WNW 23:48:04 40° WNW 23:48:04 40° WNW visible
28 Aug 3.9 22:32:28 10° WNW 22:50:19 84° N 22:50:19 84° N visible
29 Aug 5.2 07:04:06 10° SSW 07:10:35 20° SSE 07:19:56 10° ESE visible
29 Aug 4.3 21:25:51 10° NW 21:47:37 66° NNE 21:52:34 42° E visible
30 Aug 5.6 00:21:37 10° W 00:26:09 21° W 00:26:09 21° W visible
30 Aug 5.3 06:05:28 10° S 06:07:40 11° SSE 06:10:07 10° SE visible
30 Aug 5.1 20:18:36 10° NW 20:43:35 54° NNE 20:54:51 16° E visible
30 Aug 4.5 23:15:17 10° WNW 23:28:26 52° W 23:28:26 52° W visible
